Location: El Álamo
(40.2307°N, 3.9945°W)
Time: 14:36:53
(UTC+00:00)

Cosmos 1726 Rocket - Pass Details

Date: 19 May 2025
Orbit: 554 x 664 km, 82.5° (Epoch: 22 June)

Event Time Altitude Azimuth Distance (km) Brightness Sun altitude
Rises 20:16:04 0° 179° (S) 2,971 6.7 -8.5°
Reaches altitude 10° 20:18:21 10° 177° (S) 2,054 5.9 -8.9°
Maximum altitude 20:22:53 67° 95° (E) 699 3.6 -9.6°
Drops below altitude 10° 20:27:20 10° 13° (NNE) 2,013 6.5 -10.2°
Sets 20:29:33 0° 11° (N) 2,907 7.4 -10.6°
